Location: Cypress Hills Dark-Sky Preserve - CHICO
(49.6176°N, 110.2634°W)
Time: 22:21:11
(UTC-06:00)

Amateur Radio Satellites - All Passes

Search period start: 20 August 2014 21:51
Search period end: 21 August 2014 21:51
Location: Cypress Hills Dark-Sky Preserve - CHICO, 49.6176°N, 110.2634°W

Satellite Date Start Highest point End Downlink Frequencies (MHz)
Time Altitude Azimuth
PCSat 20 Aug 21:54:46 21:59:41 34° 320° (NW) 22:04:38 145.825 MHz
RS-15 20 Aug 22:10:27 22:14:32 13° 267° (W) 22:18:39 29.354 - 29.394 USB, Beacon 29.352 USB
HO-68 20 Aug 22:14:58 22:21:43 44° 262° (W) 22:28:31 435.675 MHz FM
UKube-1 20 Aug 22:42:13 22:45:56 27° 265° (W) 22:49:40 145.840 MHz, 145.915 MHz
FUNcube-1 20 Aug 22:54:46 22:58:55 79° 257° (WSW) 23:03:08 145.950 - 145.970 MHz USB
Oscar 11 20 Aug 22:59:53 23:03:43 30° 265° (W) 23:07:34 145.825 FM, Beacon 2401.500 USB
MaSat-1 20 Aug 22:59:56 23:02:13 13° 25° (NNE) 23:04:26 437.345 MHz
Sapphire 20 Aug 23:09:42 23:13:21 18° 336° (NNW) 23:17:01 437.095 MHz 1200 baud AX-25 AFSK
PCSat 20 Aug 23:41:53 23:44:48 14° 345° (NNW) 23:47:43 145.825 MHz
AO-40 21 Aug 00:08:09 04:17:57 27° 150° (SSE) 05:52:50 Beacon 2401.320
MaSat-1 21 Aug 00:36:02 00:40:49 39° 48° (NE) 00:45:10 437.345 MHz
Saudisat 1A 21 Aug 00:56:30 00:57:20 11° 108° (ESE) 00:58:11 436.775 MHz
Sapphire 21 Aug 00:56:53 00:59:05 12° 2° (N) 01:01:18 437.095 MHz 1200 baud AX-25 AFSK
PCSat 21 Aug 01:28:00 01:30:38 13° 11° (NNE) 01:33:16 145.825 MHz
KITSAT 1 21 Aug 01:53:42 02:01:11 44° 113° (ESE) 02:08:42 435.175 FM
Oscar 19 21 Aug 01:59:28 02:03:25 21° 91° (E) 02:07:20 437.125 CW, 437.150 USB
ITAMSAT 1 21 Aug 02:08:54 02:10:39 12° 85° (E) 02:12:24 435.822 SSB
MaSat-1 21 Aug 02:13:23 02:17:56 36° 250° (WSW) 02:22:01 437.345 MHz
AO-Echo 21 Aug 02:14:42 02:16:54 13° 86° (E) 02:19:04 ?
Uribyol 2 21 Aug 02:20:34 02:23:43 16° 88° (E) 02:26:52 436.500 FM
Saudisat 1A 21 Aug 02:31:43 02:36:06 71° 127° (SE) 02:40:32 436.775 MHz
Oscar 16 21 Aug 02:31:49 02:36:44 40° 97° (E) 02:41:36 437.025 USB, Beacon 2401.1428
AO-27 21 Aug 02:33:27 02:37:12 20° 90° (E) 02:40:56 436.795 MHz FM
Sapphire 21 Aug 02:40:38 02:44:42 21° 29° (NNE) 02:48:45 437.095 MHz 1200 baud AX-25 AFSK
OPAL 21 Aug 02:49:49 02:52:37 15° 50° (NE) 02:55:27 ?
TMSAT-1 21 Aug 03:00:16 03:02:15 12° 84° (E) 03:04:13 436.925 FM
PCSat 21 Aug 03:11:12 03:15:55 29° 37° (NE) 03:20:37 145.825 MHz
JAS-1B 21 Aug 03:13:52 03:21:09 40° 93° (E) 03:27:17 435.800 - 435.900 CW/SSB
Oscar 19 21 Aug 03:38:02 03:43:12 63° 290° (WNW) 03:48:19 437.125 CW, 437.150 USB
Gurwin Techsat 1B 21 Aug 03:39:22 03:44:11 34° 95° (E) 03:48:58 435.225 FM
ITAMSAT 1 21 Aug 03:45:51 03:51:03 76° 104° (ESE) 03:56:13 435.822 SSB
KITSAT 1 21 Aug 03:48:25 03:56:25 60° 316° (NW) 04:04:26 435.175 FM
AO-Echo 21 Aug 03:51:36 03:56:24 86° 285° (WNW) 04:01:06 ?
Uribyol 2 21 Aug 03:58:40 04:03:52 82° 287° (WNW) 04:09:03 436.500 FM
Oscar 16 21 Aug 04:11:22 04:16:01 34° 296° (WNW) 04:20:40 437.025 USB, Beacon 2401.1428
AO-27 21 Aug 04:12:03 04:17:13 67° 289° (WNW) 04:22:20 436.795 MHz FM
Saudisat 1A 21 Aug 04:12:25 04:16:07 26° 328° (NNW) 04:19:51 436.775 MHz
AO-7 21 Aug 04:15:22 04:20:52 19° 86° (E) 04:26:19 29.400 - 29.500 MHz
Sapphire 21 Aug 04:23:41 04:29:08 69° 51° (NE) 04:34:32 437.095 MHz 1200 baud AX-25 AFSK
OPAL 21 Aug 04:25:42 04:30:42 77° 70° (ENE) 04:35:49 ?
Uosat F 21 Aug 04:33:27 04:36:36 17° 89° (E) 04:39:44 435.120 FM
TMSAT-1 21 Aug 04:37:46 04:43:05 76° 104° (ESE) 04:48:23 436.925 FM
PCSat 21 Aug 04:54:25 04:59:51 72° 238° (WSW) 05:05:14 145.825 MHz
JAS-1B 21 Aug 05:04:22 05:11:59 49° 298° (WNW) 05:18:22 435.800 - 435.900 CW/SSB
Gurwin Techsat 1B 21 Aug 05:19:17 05:24:14 41° 294° (WNW) 05:29:10 435.225 FM
Oscar 19 21 Aug 05:19:31 05:21:34 12° 309° (NW) 05:23:37 437.125 CW, 437.150 USB
ITAMSAT 1 21 Aug 05:26:21 05:30:00 20° 303° (WNW) 05:33:40 435.822 SSB
AO-Echo 21 Aug 05:31:57 05:34:28 14° 306° (NW) 05:36:58 ?
Uribyol 2 21 Aug 05:39:37 05:42:35 16° 307° (NW) 05:45:33 436.500 FM
KITSAT 1 21 Aug 05:46:47 05:53:35 28° 342° (NNW) 06:00:23 435.175 FM
STRAND 1 21 Aug 05:53:17 05:57:17 24° 59° (ENE) 06:01:17 ?
AO-27 21 Aug 05:53:31 05:55:49 13° 309° (NW) 05:58:06 436.795 MHz FM
Saudisat 1A 21 Aug 05:55:19 05:57:12 12° 351° (N) 05:59:05 436.775 MHz
SO-50 21 Aug 06:05:37 06:07:56 14° 110° (ESE) 06:10:16 436.795 FM
AO-7 21 Aug 06:06:41 06:15:03 78° 108° (ESE) 06:23:20 29.400 - 29.500 MHz
OPAL 21 Aug 06:07:00 06:10:12 17° 269° (W) 06:13:27 ?
Sapphire 21 Aug 06:07:52 06:12:05 23° 251° (WSW) 06:16:17 437.095 MHz 1200 baud AX-25 AFSK
Uosat F 21 Aug 06:10:58 06:15:59 76° 288° (WNW) 06:20:58 435.120 FM
Hamsat 21 Aug 06:15:29 06:18:13 16° 89° (E) 06:20:56 145.90 MHz
TMSAT-1 21 Aug 06:18:40 06:22:28 20° 303° (WNW) 06:26:15 436.925 FM
PCSat 21 Aug 06:40:05 06:42:18 13° 258° (WSW) 06:44:31 145.825 MHz
JAS-2 21 Aug 06:42:57 06:47:18 26° 93° (E) 06:51:39 435.800 - 435.900 CW/SSB, 435.910 FM
JAS-1B 21 Aug 06:56:28 07:00:28 15° 324° (NW) 07:04:12 435.800 - 435.900 CW/SSB
STRAND 1 21 Aug 07:31:04 07:36:07 60° 258° (WSW) 07:41:11 ?
Saudisat 1A 21 Aug 07:36:11 07:38:38 14° 16° (NNE) 07:41:04 436.775 MHz
SO-50 21 Aug 07:43:16 07:47:46 88° 129° (SE) 07:52:25 436.795 FM
KITSAT 1 21 Aug 07:45:14 07:51:51 26° 12° (NNE) 07:58:26 435.175 FM
Hamsat 21 Aug 07:50:17 07:54:38 64° 287° (WNW) 07:58:56 145.90 MHz
Uosat F 21 Aug 07:51:26 07:53:59 14° 307° (NW) 07:56:31 435.120 FM
AO-7 21 Aug 08:00:07 08:07:11 33° 310° (NW) 08:14:15 29.400 - 29.500 MHz
SO-67 21 Aug 08:05:22 08:08:29 30° 96° (E) 08:11:36 435.3500 MHz FM
RS-15 21 Aug 08:16:35 08:22:45 17° 96° (E) 08:28:51 29.354 - 29.394 USB, Beacon 29.352 USB
JAS-2 21 Aug 08:27:45 08:32:45 47° 293° (WNW) 08:37:43 435.800 - 435.900 CW/SSB, 435.910 FM
UOSAT-12 21 Aug 09:01:20 09:05:49 50° 123° (ESE) 09:10:23 437.025 FM, 437.400 FM
Saudisat 1A 21 Aug 09:15:16 09:19:25 38° 39° (NE) 09:23:32 436.775 MHz
SO-50 21 Aug 09:25:16 09:28:57 23° 331° (NNW) 09:32:43 436.795 FM
HO-68 21 Aug 09:37:31 09:43:43 31° 93° (E) 09:49:53 435.675 MHz FM
SO-67 21 Aug 09:38:43 09:41:25 21° 294° (WNW) 09:44:06 435.3500 MHz FM
KITSAT 1 21 Aug 09:41:27 09:49:19 50° 40° (NE) 09:57:07 435.175 FM
AO-7 21 Aug 09:54:51 09:57:27 12° 335° (NNW) 10:00:03 29.400 - 29.500 MHz
RS-15 21 Aug 10:21:56 10:32:46 65° 120° (ESE) 10:43:30 29.354 - 29.394 USB, Beacon 29.352 USB
UKube-1 21 Aug 10:25:27 10:29:29 36° 98° (E) 10:33:29 145.840 MHz, 145.915 MHz
FUNcube-1 21 Aug 10:40:25 10:43:04 16° 89° (E) 10:45:44 145.950 - 145.970 MHz USB
UOSAT-12 21 Aug 10:41:53 10:46:10 34° 323° (NW) 10:50:31 437.025 FM, 437.400 FM
Oscar 11 21 Aug 10:42:37 10:46:41 36° 97° (E) 10:50:42 145.825 FM, Beacon 2401.500 USB
Saudisat 1A 21 Aug 10:54:55 10:59:02 39° 239° (WSW) 11:03:08 436.775 MHz
SO-50 21 Aug 11:08:57 11:11:10 13° 356° (N) 11:13:24 436.795 FM
HO-68 21 Aug 11:24:51 11:31:55 65° 294° (WNW) 11:38:57 435.675 MHz FM
KITSAT 1 21 Aug 11:37:05 11:44:54 55° 243° (WSW) 11:52:40 435.175 FM
UKube-1 21 Aug 12:01:52 12:05:36 28° 296° (WNW) 12:09:18 145.840 MHz, 145.915 MHz
JAS-1B 21 Aug 12:14:21 12:20:38 20° 43° (NE) 12:26:33 435.800 - 435.900 CW/SSB
FUNcube-1 21 Aug 12:15:32 12:19:54 68° 287° (WNW) 12:24:22 145.950 - 145.970 MHz USB
Oscar 16 21 Aug 12:16:29 12:19:37 17° 54° (NE) 12:22:46 437.025 USB, Beacon 2401.1428
Oscar 11 21 Aug 12:19:00 12:22:47 29° 295° (WNW) 12:26:32 145.825 FM, Beacon 2401.500 USB
UOSAT-12 21 Aug 12:24:58 12:27:41 15° 347° (NNW) 12:30:26 437.025 FM, 437.400 FM
RS-15 21 Aug 12:34:53 12:45:34 54° 327° (NNW) 12:56:18 29.354 - 29.394 USB, Beacon 29.352 USB
SO-50 21 Aug 12:50:24 12:53:35 18° 21° (NNE) 12:56:48 436.795 FM
HO-68 21 Aug 13:13:54 13:18:22 18° 316° (NW) 13:22:51 435.675 MHz FM
Oscar 19 21 Aug 13:20:21 13:25:15 46° 67° (ENE) 13:30:13 437.125 CW, 437.150 USB
Gurwin Techsat 1B 21 Aug 13:27:52 13:30:53 16° 53° (NE) 13:33:54 435.225 FM
ITAMSAT 1 21 Aug 13:29:57 13:34:22 29° 62° (ENE) 13:38:48 435.822 SSB
AO-Echo 21 Aug 13:30:47 13:35:13 30° 64° (ENE) 13:39:33 ?
AO-7 21 Aug 13:31:34 13:35:34 15° 31° (NNE) 13:39:34 29.400 - 29.500 MHz
KITSAT 1 21 Aug 13:35:57 13:38:29 12° 264° (W) 13:41:00 435.175 FM
Uribyol 2 21 Aug 13:42:13 13:46:57 38° 65° (ENE) 13:51:41 436.500 FM
Oscar 16 21 Aug 13:53:06 13:58:16 87° 74° (ENE) 14:03:29 437.025 USB, Beacon 2401.1428
FUNcube-1 21 Aug 13:54:40 13:55:32 11° 305° (NW) 13:56:23 145.950 - 145.970 MHz USB
AO-27 21 Aug 13:55:32 14:00:29 46° 67° (ENE) 14:05:26 436.795 MHz FM
JAS-1B 21 Aug 13:59:53 14:09:28 58° 65° (ENE) 14:18:20 435.800 - 435.900 CW/SSB
UOSAT-12 21 Aug 14:07:05 14:09:44 15° 12° (NNE) 14:12:24 437.025 FM, 437.400 FM
TMSAT-1 21 Aug 14:24:12 14:28:45 30° 62° (ENE) 14:33:18 436.925 FM
SO-50 21 Aug 14:30:34 14:35:12 50° 43° (NE) 14:39:54 436.795 FM
RS-15 21 Aug 14:50:57 15:00:50 37° 360° (N) 15:10:52 29.354 - 29.394 USB, Beacon 29.352 USB
Oscar 19 21 Aug 15:00:23 15:04:48 29° 266° (W) 15:09:17 437.125 CW, 437.150 USB
Gurwin Techsat 1B 21 Aug 15:04:44 15:10:03 79° 73° (ENE) 15:15:23 435.225 FM
ITAMSAT 1 21 Aug 15:08:41 15:13:41 48° 261° (W) 15:18:42 435.822 SSB
AO-Echo 21 Aug 15:08:56 15:13:52 44° 262° (W) 15:18:40 ?
AO-7 21 Aug 15:18:35 15:26:13 42° 55° (NE) 15:33:51 29.400 - 29.500 MHz
Uribyol 2 21 Aug 15:21:44 15:26:27 36° 264° (W) 15:31:12 436.500 FM
Oscar 16 21 Aug 15:35:29 15:38:21 15° 273° (W) 15:41:13 437.025 USB, Beacon 2401.1428
AO-27 21 Aug 15:35:43 15:40:11 29° 266° (W) 15:44:41 436.795 MHz FM
UOSAT-12 21 Aug 15:47:02 15:51:19 32° 35° (NE) 15:55:34 437.025 FM, 437.400 FM
ISS 21 Aug 15:49:01 15:52:13 46° 151° (SSE) 15:55:25 145.800 FM
Uosat F 21 Aug 15:50:27 15:55:02 37° 65° (ENE) 15:59:37 435.120 FM
JAS-1B 21 Aug 15:50:37 16:00:04 48° 264° (W) 16:08:59 435.800 - 435.900 CW/SSB
TMSAT-1 21 Aug 16:03:23 16:08:29 48° 261° (W) 16:13:37 436.925 FM
MaSat-1 21 Aug 16:05:32 16:10:08 45° 112° (ESE) 16:15:04 437.345 MHz
SO-50 21 Aug 16:11:26 16:15:38 31° 242° (WSW) 16:19:51 436.795 FM
OPAL 21 Aug 16:32:44 16:35:26 14° 89° (E) 16:38:08 ?
Gurwin Techsat 1B 21 Aug 16:47:13 16:50:39 17° 272° (W) 16:54:07 435.225 FM
JAS-2 21 Aug 17:00:04 17:04:59 24° 59° (ENE) 17:09:31 435.800 - 435.900 CW/SSB, 435.910 FM
RS-15 21 Aug 17:05:27 17:16:09 53° 33° (NNE) 17:27:07 29.354 - 29.394 USB, Beacon 29.352 USB
AO-7 21 Aug 17:10:34 17:18:46 59° 257° (WSW) 17:27:01 29.400 - 29.500 MHz
Hamsat 21 Aug 17:13:06 17:16:17 21° 62° (ENE) 17:19:30 145.90 MHz
ISS 21 Aug 17:25:36 17:28:55 65° 351° (N) 17:32:14 145.800 FM
UOSAT-12 21 Aug 17:27:06 17:31:45 56° 236° (SW) 17:36:20 437.025 FM, 437.400 FM
Uosat F 21 Aug 17:29:16 17:33:51 35° 263° (W) 17:38:27 435.120 FM
MaSat-1 21 Aug 17:42:48 17:47:24 36° 313° (NW) 17:52:14 437.345 MHz
JAS-1B 21 Aug 17:50:25 17:52:47 11° 285° (WNW) 17:55:07 435.800 - 435.900 CW/SSB
OPAL 21 Aug 18:09:50 18:15:04 86° 108° (ESE) 18:20:18 ?
HO-68 21 Aug 18:29:35 18:31:25 11° 35° (NE) 18:33:14 435.675 MHz FM
SO-67 21 Aug 18:42:58 18:45:42 22° 66° (ENE) 18:48:27 435.3500 MHz FM
JAS-2 21 Aug 18:43:06 18:49:42 73° 257° (WSW) 18:55:33 435.800 - 435.900 CW/SSB, 435.910 FM
Hamsat 21 Aug 18:47:45 18:51:56 51° 261° (W) 18:56:10 145.90 MHz
ISS 21 Aug 19:02:31 19:05:51 68° 11° (N) 19:09:11 145.800 FM
AO-7 21 Aug 19:09:59 19:13:25 13° 278° (W) 19:16:53 29.400 - 29.500 MHz
Sapphire 21 Aug 19:10:54 19:15:10 24° 109° (ESE) 19:19:28 437.095 MHz 1200 baud AX-25 AFSK
RS-15 21 Aug 19:18:12 19:29:04 68° 240° (WSW) 19:40:20 29.354 - 29.394 USB, Beacon 29.352 USB
MaSat-1 21 Aug 19:23:54 19:26:04 12° 336° (NNW) 19:28:13 437.345 MHz
STRAND 1 21 Aug 19:37:22 19:41:58 33° 96° (E) 19:46:32 ?
PCSat 21 Aug 19:40:25 19:45:30 43° 116° (ESE) 19:50:37 145.825 MHz
OPAL 21 Aug 19:49:49 19:53:19 19° 307° (NW) 19:56:51 ?
HO-68 21 Aug 20:10:46 20:17:12 38° 58° (ENE) 20:23:39 435.675 MHz FM
SO-67 21 Aug 20:15:33 20:18:39 30° 264° (W) 20:21:45 435.3500 MHz FM
JAS-2 21 Aug 20:32:43 20:35:38 13° 274° (W) 20:38:25 435.800 - 435.900 CW/SSB, 435.910 FM
ISS 21 Aug 20:39:21 20:42:31 41° 210° (SSW) 20:45:40 145.800 FM
Sapphire 21 Aug 20:52:47 20:58:10 66° 309° (NW) 21:03:35 437.095 MHz 1200 baud AX-25 AFSK
STRAND 1 21 Aug 21:16:30 21:21:14 40° 295° (WNW) 21:25:57 ?
PCSat 21 Aug 21:23:51 21:28:58 41° 316° (NW) 21:34:08 145.825 MHz
UKube-1 21 Aug 21:24:58 21:29:14 56° 70° (ENE) 21:33:30 145.840 MHz, 145.915 MHz
RS-15 21 Aug 21:32:33 21:39:15 18° 263° (W) 21:46:06 29.354 - 29.394 USB, Beacon 29.352 USB
FUNcube-1 21 Aug 21:41:19 21:44:26 21° 62° (ENE) 21:47:35 145.950 - 145.970 MHz USB
Oscar 11 21 Aug 21:41:44 21:45:53 48° 70° (ENE) 21:50:06 145.825 FM, Beacon 2401.500 USB
